Date,TemperatureHighF,TemperatureAvgF,TemperatureLowF,DewpointHighF,DewpointAvgF,DewpointLowF,HumidityHigh,HumidityAvg,HumidityLow,PressureMaxIn,PressureMinIn,WindSpeedMaxMPH,WindSpeedAvgMPH,GustSpeedMaxMPH,PrecipitationSumIn
2013-6-1,89,79,73,76,72,69,97,82,58,29.95,29.84,8,1,9,0.85
2013-6-2,99,85,74,89,79,-100,100,87,68,29.89,29.79,6,1,6,0.87
2013-6-3,90,81,76,86,76,70,98,87,70,29.89,29.79,6,1,7,0.05
2013-6-4,84,78,75,75,73,69,94,85,62,29.91,29.82,8,1,9,0.08
2013-6-5,95,82,76,83,76,72,89,81,67,29.90,29.78,6,1,6,0.08
2013-6-6,87,78,73,85,75,71,99,90,77,29.78,29.53,16,5,21,2.80
2013-6-7,85,80,75,76,73,70,93,79,67,29.85,29.67,5,1,6,0.01
2013-6-8,87,78,73,75,73,70,96,85,64,29.99,29.85,6,1,6,0.23
2013-6-9,90,78,72,78,74,71,99,88,59,30.00,29.91,6,1,7,0.33
2013-6-10,91,81,74,77,74,71,97,82,61,29.98,29.91,6,1,6,0.05
2013-6-11,88,80,74,80,74,71,96,84,61,29.99,29.91,7,0,7,0.51
2013-6-12,91,82,74,77,74,71,95,77,58,29.98,29.90,4,0,5,0.01
2013-6-13,90,81,75,77,74,69,98,78,55,29.93,29.81,4,0,4,0.00
2013-6-14,88,81,78,75,73,71,84,77,60,29.85,29.78,4,0,6,0.00
2013-6-15,88,82,78,77,75,72,91,80,66,29.95,29.80,4,0,6,0.00
2013-6-16,89,82,79,77,75,71,90,79,56,29.98,29.91,4,0,8,0.00
2013-6-17,91,83,76,77,74,72,95,78,58,29.96,29.89,3,0,3,0.00
2013-6-18,89,82,75,77,74,73,96,79,61,29.95,29.86,7,0,7,0.00
2013-6-19,91,83,76,78,75,72,95,79,59,29.92,29.86,4,0,4,0.00
2013-6-20,89,79,76,79,75,72,97,88,65,30.00,29.90,2,0,8,0.28
2013-6-22,91,84,76,76,71,67,82,67,49,30.02,29.93,9,1,11,0.18
2013-6-23,93,80,75,75,72,65,95,79,42,30.03,29.95,6,0,6,0.11
2013-6-24,91,80,76,76,74,70,94,83,50,30.08,29.95,7,0,9,0.36
2013-6-25,90,81,75,77,74,72,96,79,58,30.03,29.92,3,0,5,0.70
2013-6-26,88,78,75,78,75,71,99,89,64,29.97,29.91,5,0,7,0.12
2013-6-27,90,80,73,78,73,71,97,82,60,29.95,29.84,3,0,5,0.01
2013-6-28,78,77,76,74,74,73,92,90,85,29.86,29.83,0,0,0,0.00
2013-6-29,84,79,74,78,74,70,95,86,72,29.78,29.70,3,0,9,0.24
2013-6-30,87,81,76,78,74,70,94,81,66,29.77,29.69,10,2,14,0.03